Weather in Gloucester

United Kingdom     51°51′30″N   2°15′02″W
temp.,
°C
wind,
m/s
gust,
m/s
humid.,
%
clouds,
%
prec.,
mm/h
press.,
hPa
HPBL,
m
14 june, mon
mon1401:00+15sw33930 0.1 102343
04:00+13ssw35950 0.0 102185
07:00+15sw369077 0.0 1021172
10:00+19w347538 0.0 1021740
13:00+20nw447495 0.1 1021978
16:00+19nnw4681100 0.0 1021535
19:00+17n3685100 0.1 1021440
22:00+13nnw3787100 0.0 1023197
15 june, tue
tue1501:00+9n2282100 0.0 102427
04:00+8n2289100 0.0 102332
07:00+10nne2383100 0.0 1023121
10:00+15ne2270100 0.0 1023630
13:00+18sse226112 0.0 1022988
16:00+20sw33605 0.0 10201145
19:00+18wsw23735 0.0 1018390
22:00+13ssw11805 0.0 101711
16 june, wed
wed1601:00+12ssw2292100 0.0 101727
04:00+11s22934 0.0 101520
07:00+13s23855 0.0 1014109
10:00+18ssw23685 0.0 1014540
13:00+21s33625 0.0 10121043
16:00+22s356212 0.0 10101356
19:00+20w2279100 0.0 100942
22:00+16s118697 0.1 100911
17 june, thu
thu1701:00+14s1191100 0.1 101010
04:00+14nw118898 0.0 100913
07:00+13n3693100 0.0 1010259
10:00+16n5681100 0.0 1012612
13:00+18n4573100 0.0 10121024
16:00+18nnw457597 0.0 1013923
19:00+18nnw467899 0.0 1014659
22:00+14n51071100 0.0 1016403
18 june, fri
fri1801:00+13n51166100 0.0 1017448
04:00+12n51173100 0.0 1018484
07:00+11n51078100 0.0 1018443
10:00+11n4990100 0.1 1017394
13:00+14nne4987100 0.3 1017741
16:00+12nne51096100 2.4 1016611
19:00+13nne5995100 2.9 1015585
22:00+12nne3897100 0.8 1015471